Location: ???????
(55.7027°N, 37.3832°E)
Time: 18:16:49
(UTC+00:00)

Cosmos 2058 - Pass Details

Date: 14 April 2026
Orbit: 523 x 538 km, 82.5° (Epoch: 16 May)

Event Time Altitude Azimuth Distance (km) Brightness Sun altitude
Rises 19:30:34 0° 350° (N) 2,699 7.6 -20.0°
Reaches altitude 10° 19:32:47 10° 355° (N) 1,800 6.4 -20.2°
Maximum altitude 19:36:39 53° 73° (ENE) 666 3.1 -20.5°
Enters shadow 19:36:57 51° 92° (E) 677 3.0 -20.5°
